"Pseudo-MPEC" for A116XpY = A117bbC

Created 2024 Jul 28 19:49:13 UT using Find_Orb

Click here for an explanation of pseudo-MPECs

TLEs are available for this object, and for most of the other objects listed on these pages.

 
 Astrometry: 
     A116XpY  C2024 05 28.24479217 11 03.005-05 40 23.92         16.41oV     W68
     A116XpY  C2024 05 28.25610917 12 51.823-06 05 09.82         16.47oV     W68
     A116XpY  C2024 05 28.25928017 13 22.519-06 12 04.10         16.49oV     W68
     A116XpY  C2024 05 28.26472217 14 15.278-06 23 51.43         16.37oV     W68
     A117bbC* C2024 06 02.18429817 18 01.819-06 08 19.32   ~63GL 16.55cVNEOCPW68
     A117bbC  C2024 06 02.18658017 18 23.064-06 13 42.31   ~63GL 16.53cVNEOCPW68
     A117bbC  C2024 06 02.18935017 18 49.140-06 20 18.06   ~63GL 16.54cVNEOCPW68
     A118s6l* C2024 07 14.15926419 35 13.946-27 35 50.57   ~7EG6 16.67oVNEOCPW68
     A118s6l  C2024 07 14.16249519 35 55.596-27 42 34.96   ~7EG6 16.08oVNEOCPW68
     A118s6l  C2024 07 14.16566619 36 37.565-27 49 18.77   ~7EG6 15.85oVNEOCPW68
     A118s6l  C2024 07 14.17178819 37 56.921-28 01 51.53   ~7EG6 15.98oVNEOCPW68
     A118NyU* C2024 07 26.20462620 28 45.763-32 19 59.70   ~7QKU 16.22oVNEOCPW68
     A118NyU  C2024 07 26.20739520 29 29.386-32 23 24.04   ~7QKU 16.22oVNEOCPW68
     A118NyU  C2024 07 26.24011420 38 26.275-33 00 01.12   ~7QKU 16.22oVNEOCPW68
     A118NyU  C2024 07 26.24325020 39 19.939-33 03 09.14   ~7QKU 16.13oVNEOCPW68
     A118NyU  C2024 07 26.24417620 39 35.669-33 04 03.32   ~7QKU 16.31oVNEOCPW68
     A118NyU  C2024 07 26.24875020 40 55.142-33 08 28.36   ~7QKU 16.25oVNEOCPW68
     A118NyU  C2024 07 26.28686020 52 40.042-33 39 23.40   ~7QKU 16.06oVNEOCPW68
     A118T0G* C2024 07 27.25317820 46 09.828-33 20 25.76   ~7SEa 15.79oVNEOCPW68
     A118T0G  C2024 07 27.25845520 47 44.578-33 24 46.55   ~7SEa 15.77oVNEOCPW68
     A118T0G  C2024 07 27.26163920 48 42.622-33 27 18.07   ~7SEa 15.86oVNEOCPW68

Station data:
(W68) ATLAS Chile, Rio Hurtado  (S30.471010 W70.764980)  Chile.  Observers L.
   Denneau, R. Siverd, J. Tonry, H. Weiland. Measurers L. Denneau, N.
   Erasmus, A. Fitzsimmons, A. Lawrence, J. Robinson, R. Siverd, J. Tonry, H.
   Weiland. 0.5-m reflector + CCD.

Orbital elements:  A116XpY = A117bbC
   Perigee 2024 Jun 26.631555 +/- 6.64e-5 TT = 15:09:26.3 (JD 2460488.131555)
A1: (19366.12 +/- 5.95)e-9   A2: (-41.11 +/- 2.03)e-9
A3: (-131.41 +/- 2.06)e-9 AU/day^2 [1/r^2]
Epoch 2024 Jun 27.0 TT = JDT 2460488.5                           Find_Orb
M 133.382316460 +/- 0.024           (J2000 equator)
n 362.014530462 +/- 0.000756        Peri.   34.745333 +/- 0.0041
a 42084.24153 +/- 0.0586            Node    66.828909 +/- 0.0009
e   0.77689648 +/- 5.39e-5          Incl.   35.948783 +/- 0.0006
P1431.960m/0.994d          H 32.45  G  0.15   U  7.9
q 9389.142306 +/- 2.27    Q 74779.34076 +/- 2.24
From 21 observations 2024 May 28-July 27; mean residual 3".843
Residuals in arcseconds: 
240528 W68 13.2- 8.39+    240714 W68 6.10- 3.30+    240726 W68 2.39+ 0.99-
240528 W68 4.30- 2.27+    240714 W68 9.14- 5.70+    240726 W68 .175- .463-
240528 W68 1.97- .545+    240714 W68 .883+ 1.56-    240726 W68 2.02+ .484-
240528 W68 .748- .799-    240714 W68 6.60- 3.77+    240726 W68 4.80- 1.02+
240602 W68 4.16- 2.61+    240726 W68 .647- .923-    240727 W68 .403- .907+
240602 W68 5.20- 3.78+    240726 W68 2.01- .123-    240727 W68 1.62- 1.16+
240602 W68 1.53- .589+    240726 W68 2.46+ .884-    240727 W68 .455- 1.20+

Ephemerides (geocentric):
Date (UTC) HH   RA             Dec           delta  r     elong  mag " sig PA
---- --------  ------------   ------------  ------ ------ -----  --- --------
2024 07 28 20  18 26 13.625   -21 58 45.95   59330 1.0157 150.2 16.8 17.4 124
2024 07 28 21  18 44 02.105   -23 59 58.67   63878 1.0157 154.1 16.8 16.8 122
2024 07 28 22  19 00 09.051   -25 39 59.60   67513 1.0158 157.4 16.8 15.8 120
2024 07 28 23  19 15 10.989   -27 04 57.49   70317 1.0158 160.2 16.8 14.5 118
2024 07 29 00  19 29 33.228   -28 18 42.20   72343 1.0158 162.5 16.8 13.1 116
2024 07 29 01  19 43 35.095   -29 23 43.35   73628 1.0158 164.4 16.8 11.5 114
2024 07 29 02  19 57 32.875   -30 21 40.19   74195 1.0158 165.7 16.8 9.77 112
2024 07 29 03  20 11 41.738   -31 13 37.17   74052 1.0158 166.5 16.7 7.82 111
2024 07 29 04  20 26 17.288   -32 00 11.67   73198 1.0158 166.6 16.7 5.64 109
2024 07 29 05  20 41 37.143   -32 41 36.07   71618 1.0158 165.9 16.7 3.15 107
2024 07 29 06  20 58 02.923   -33 17 34.41   69285 1.0158 164.5 16.7 .264 128
2024 07 29 07  21 16 03.235   -33 47 11.41   66156 1.0157 162.3 16.6 3.26  98
2024 07 29 08  21 36 18.706   -34 08 26.87   62166 1.0157 159.4 16.6 7.64  96
2024 07 29 09  21 59 51.395   -34 17 17.81   57224 1.0156 155.5 16.5 13.4  93
2024 07 29 10  22 28 24.348   -34 05 16.55   51193 1.0156 150.5 16.4 21.6  89
2024 07 29 11  23 05 07.984   -33 12 51.42   43871 1.0155 143.6 16.3 34.6  84
2024 07 29 12  23 56 52.831   -30 46 14.61   34940 1.0154 133.1 16.1 59.2  76
2024 07 29 13  01 22 49.822   -23 22 27.70   23932 1.0153 113.5 15.8  125  66
2024 07 29 14  05 03 53.280   +10 36 59.22   11611 1.0152  51.7 17??  447  58
2024 07 29 15  14 14 15.858   +16 52 24.53   16356 1.0152  79.7 16.3  129 119
2024 07 29 16  16 18 00.724   -03 05 06.95   28666 1.0153 115.1 16.2 8.86  99
2024 07 29 17  17 10 00.702   -11 36 34.02   38772 1.0154 129.8 16.4 12.3 138
2024 07 29 18  17 43 17.482   -16 33 34.55   47002 1.0155 138.7 16.6 17.4 130
2024 07 29 19  18 08 22.559   -19 55 42.14   53770 1.0155 145.0 16.7 18.6 127
2024 07 29 20  18 29 01.235   -22 26 22.19   59338 1.0156 149.9 16.8 18.4 124
2024 07 29 21  18 46 59.154   -24 25 25.69   63879 1.0156 153.8 16.8 17.6 122
2024 07 29 22  19 03 14.859   -26 03 21.73   67508 1.0157 157.0 16.8 16.4 120
2024 07 29 23  19 18 24.996   -27 26 16.48   70306 1.0157 159.8 16.8 15.1 118
2024 07 30 00  19 32 54.970   -28 37 57.69   72327 1.0157 162.1 16.8 13.5 116
2024 07 30 01  19 47 04.185   -29 40 53.08   73608 1.0157 163.9 16.8 11.8 114
2024 07 30 02  20 01 08.978   -30 36 40.01   74170 1.0157 165.3 16.8 10.0 112
2024 07 30 03  20 15 24.552   -31 26 20.90   74023 1.0157 166.1 16.7 7.98 110
2024 07 30 04  20 30 06.524   -32 10 30.74   73165 1.0157 166.2 16.7 5.73 108
2024 07 30 05  20 45 32.492   -32 49 18.98   71581 1.0157 165.6 16.7 3.18 106
2024 07 30 06  21 02 04.019   -33 22 25.87   69244 1.0156 164.2 16.7 .220 119
2024 07 30 07  21 20 09.594   -33 48 50.91   66110 1.0156 162.1 16.6 3.34  99
2024 07 30 08  21 40 29.620   -34 06 26.43   62116 1.0156 159.2 16.6 7.76  96
2024 07 30 09  22 04 05.747   -34 10 58.09   57168 1.0155 155.4 16.5 13.6  93
2024 07 30 10  22 32 40.265   -33 53 39.68   51132 1.0155 150.4 16.4 21.7  89
2024 07 30 11  23 09 22.161   -32 54 26.35   43803 1.0154 143.5 16.3 34.7  83
2024 07 30 12  00 00 59.430   -30 18 22.07   34865 1.0153 133.0 16.1 59.0  76
2024 07 30 13  01 26 42.173   -22 39 29.72   23852 1.0152 113.3 15.8  124  65
2024 07 30 14  05 09 17.136   +11 42 30.06   11576 1.0151  51.1 17??  434  58
2024 07 30 15  14 17 17.598   +16 08 03.31   16434 1.0151  79.8 16.3  117 119
2024 07 30 16  16 20 08.023   -03 44 17.90   28718 1.0152 114.9 16.2 5.59  76
2024 07 30 17  17 12 16.029   -12 11 54.14   38806 1.0153 129.6 16.4 14.8 137
2024 07 30 18  17 45 44.877   -17 05 55.30   47024 1.0154 138.5 16.6 19.1 130
2024 07 30 19  18 11 01.539   -20 25 27.87   53782 1.0154 144.7 16.7 19.9 126
2024 07 30 20  18 31 50.823   -22 53 46.48   59342 1.0155 149.5 16.8 19.4 124
2024 07 30 21  18 49 58.442   -24 50 36.50   63877 1.0155 153.4 16.8 18.4 121
2024 07 30 22  19 06 23.090   -26 26 23.45   67501 1.0155 156.7 16.9 17.1 119
2024 07 30 23  19 21 41.546   -27 47 10.92   70294 1.0156 159.4 16.9 15.6 117
2024 07 31 00  19 36 19.322   -28 56 44.55   72310 1.0156 161.7 16.8 13.9 115
2024 07 31 01  19 50 35.902   -29 57 30.14   73586 1.0156 163.5 16.8 12.1 113
2024 07 31 02  20 04 47.678   -30 51 03.13   74145 1.0156 164.9 16.8 10.2 111
2024 07 31 03  20 19 09.886   -31 38 23.88   73994 1.0156 165.7 16.8 8.13 109
2024 07 31 04  20 33 58.147   -32 20 05.00   73131 1.0156 165.8 16.7 5.81 107
2024 07 31 05  20 49 30.036   -32 56 12.98   71544 1.0156 165.2 16.7 3.19 105
2024 07 31 06  21 06 07.048   -33 26 24.28   69202 1.0155 163.9 16.7 .167 103
2024 07 31 07  21 24 17.537   -33 49 33.18   66065 1.0155 161.8 16.6 3.43  99
2024 07 31 08  21 44 41.661   -34 03 24.61   62066 1.0155 159.0 16.6 7.89  96
2024 07 31 09  22 08 20.629   -34 03 32.99   57114 1.0154 155.2 16.5 13.7  93
2024 07 31 10  22 36 55.929   -33 40 53.89   51073 1.0154 150.2 16.4 21.9  88
2024 07 31 11  23 13 35.060   -32 34 50.13   43739 1.0153 143.4 16.3 34.7  83
2024 07 31 12  00 05 03.408   -29 49 20.04   34795 1.0152 132.9 16.1 58.8  75
2024 07 31 13  01 30 30.171   -21 55 39.68   23778 1.0151 113.1 15.8  122  65
2024 07 31 14  05 14 33.288   +12 45 51.44   11547 1.0150  50.5 17??  420  59
2024 07 31 15  14 20 08.345   +15 24 15.60   16505 1.0150  79.8 16.3  105 118
2024 07 31 16  16 22 12.584   -04 23 20.18   28764 1.0151 114.7 16.2 4.59  28
2024 07 31 17  17 14 30.664   -12 47 09.71   38834 1.0152 129.3 16.4 17.2 135
2024 07 31 18  17 48 12.626   -17 38 09.73   47040 1.0153 138.2 16.6 20.8 129
2024 07 31 19  18 13 41.543   -20 55 03.89   53790 1.0153 144.4 16.7 21.2 126
2024 07 31 20  18 34 41.902   -23 20 57.19   59343 1.0154 149.2 16.8 20.4 123
2024 07 31 21  18 52 59.563   -25 15 29.70   63872 1.0154 153.1 16.8 19.2 121
2024 07 31 22  19 09 33.404   -26 49 03.52   67490 1.0154 156.3 16.9 17.7 119
2024 07 31 23  19 25 00.359   -28 07 39.67   70278 1.0154 159.0 16.9 16.1 117
2024 08 01 00  19 39 46.060   -29 15 01.67   72290 1.0155 161.3 16.9 14.3 115
2024 08 01 01  19 54 10.075   -30 13 33.43   73563 1.0155 163.1 16.8 12.4 113
2024 08 01 02  20 08 28.856   -31 04 48.44   74117 1.0155 164.4 16.8 10.4 111
2024 08 01 03  20 22 57.669   -31 49 44.97   73962 1.0155 165.2 16.8 8.25 108
2024 08 01 04  20 37 52.141   -32 28 53.23   73096 1.0154 165.4 16.7 5.86 106
